CW9665 Weather Reports


time (UTC)temp
F
wind
direction
speed
knots
gust
knots
rain 1hr
in
rain 24hr
in
rain mn
in
humidity
%
barometer
mb
20260507210730 64 185 2.6 2.6 0.00 0.09 0.09 21 1017.9
20260507205729 64 167 2.6 3.5 0.00 0.09 0.09 18 1017.9
20260507204728 63 152 0.9 0.9 0.00 0.09 0.09 20 1017.9
20260507203724 63 190 3.5 5.2 0.00 0.09 0.09 18 1018.0
20260507202723 62 174 1.7 2.6 0.00 0.09 0.09 22 1018.1
20260507201720 63 182 3.5 3.5 0.00 0.09 0.09 22 1018.3
20260507200719 62 192 3.5 3.5 0.00 0.09 0.09 21 1018.4
20260507195718 62 192 1.7 2.6 0.00 0.09 0.09 23 1018.5
20260507194718 62 339 4.3 6.1 0.00 0.09 0.09 18 1018.6
20260507193717 61 194 3.5 3.5 0.00 0.09 0.09 27 1018.6
20260507192716 62 110 2.6 2.6 0.00 0.09 0.09 27 1018.9
20260507191714 60 188 2.6 3.5 0.00 0.09 0.09 27 1019.0
20260507190714 59 144 4.3 5.2 0.00 0.09 0.09 23 1019.0
20260507185711 58 9 0.9 1.7 0.00 0.09 0.09 29 1019.2
20260507184711 59 186 2.6 2.6 0.00 0.09 0.09 23 1019.3
20260507183711 58 165 1.7 1.7 0.00 0.09 0.09 26 1019.5
20260507182711 58 183 0.9 1.7 0.00 0.09 0.09 23 1019.5
20260507181709 56 189 1.7 1.7 0.00 0.09 0.09 26 1019.4
20260507180709 57 132 0.9 0.9 0.00 0.09 0.09 34 1019.9
20260507175706 56 161 0.9 0.9 0.00 0.09 0.09 29 1019.3
20260507174701 56 163 1.7 2.6 0.00 0.09 0.09 30 1020.0
20260507173656 55 170 0.9 0.9 0.00 0.09 0.09 38 1020.2
20260507172655 55 169 1.7 2.6 0.00 0.09 0.09 41 1020.4
20260507171652 53 162 0.0 0.0 0.07 0.09 0.09 45 1020.3
20260507170652 53 159 0.0 0.0 0.07 0.09 0.09 45 1020.2
20260507165651 52 145 0.9 0.9 0.05 0.08 0.08 37 1020.4
20260507164649 52 144 0.0 0.0 0.12 0.07 0.07 42 1020.3
20260507163650 51 143 0.9 0.9 0.05 0.06 0.06 40 1020.5
20260507162649 50 147 0.0 0.9 0.00 0.05 0.05 42 1020.5
20260507161648 51 142 0.0 0.0 0.00 0.05 0.05 48 1020.3
20260507160647 47 142 0.0 0.0 0.00 0.05 0.05 41 1020.4
20260507155645 46 137 0.0 0.0 0.00 0.05 0.05 72 1020.4
20260507154644 45 142 0.0 0.0 0.12 0.05 0.05 66 1020.5
20260507153644 44 142 0.9 0.9 0.12 0.03 0.03 68 1020.8
20260507152642 42 143 0.0 0.0 0.07 0.01 0.01 71 1020.8
20260507151640 41 143 0.9 0.9 0.00 0.00 0.00 71 1020.9
20260507150639 40 142 0.9 0.9 0.00 0.00 0.00 69 1020.5
20260507145637 39 111 1.7 2.6 0.00 0.00 0.00 64 1021.0
20260507144637 38 147 0.0 0.0 0.00 0.00 0.00 66 1020.8
20260507143637 37 145 0.0 0.0 0.00 0.00 0.00 67 1020.9
20260507142635 36 130 0.0 0.0 0.00 0.00 0.00 63 1020.9
20260507141635 35 142 0.0 0.0 0.00 0.00 0.00 67 1021.2
20260507140634 34 135 0.0 0.0 0.00 0.00 0.00 66 1021.0
20260507135634 33 4 0.0 0.0 0.00 0.00 0.00 67 1021.0
20260507134633 32 128 0.0 0.0 0.00 0.00 0.00 67 1021.0
20260507133631 31 121 0.0 0.0 0.00 0.00 0.00 67 1021.0
20260507132631 30 323 0.0 0.0 0.00 0.00 0.00 69 1020.9
20260507131630 30 105 0.0 0.0 0.00 0.00 0.00 67 1020.9
20260507130630 29 316 0.0 0.0 0.00 0.00 0.00 70 1020.7
20260507125627 28 129 0.0 0.0 0.00 0.00 0.00 70 1020.5
20260507124625 28 341 0.0 0.0 0.00 0.00 0.00 69 1020.5
20260507123622 27 105 0.0 0.0 0.00 0.00 0.00 70 1020.4
20260507122619 27 9 0.0 0.0 0.00 0.00 0.00 72 1020.4
20260507121617 27 102 0.0 0.0 0.00 0.00 0.00 73 1020.4
20260507120615 27 122 0.0 0.0 0.00 0.00 0.00 74 1020.3
20260507115615 27 97 0.0 0.0 0.00 0.00 0.00 72 1020.4
20260507114612 26 132 0.0 0.0 0.00 0.00 0.00 76 1020.3
20260507113607 27 132 0.0 0.0 0.00 0.00 0.00 74 1020.4
20260507112602 27 45 0.0 0.0 0.00 0.00 0.00 75 1020.3
20260507111601 28 130 0.0 0.0 0.00 0.00 0.00 69 1020.4
20260507110600 27 96 0.0 0.0 0.00 0.00 0.00 73 1020.4
20260507105559 27 127 0.0 0.0 0.00 0.00 0.00 74 1020.3
20260507104559 27 133 0.0 0.0 0.00 0.00 0.00 78 1020.4
20260507103557 26 137 0.0 0.0 0.00 0.00 0.00 76 1020.5
20260507102556 27 121 0.0 0.0 0.00 0.00 0.00 77 1020.4
20260507101554 27 63 0.0 0.0 0.00 0.00 0.00 74 1020.3
20260507100554 27 26 0.0 0.0 0.00 0.00 0.00 77 1020.3
20260507095549 27 2 0.0 0.0 0.00 0.00 0.00 77 1020.0
20260507094548 27 347 0.0 0.0 0.00 0.00 0.00 76 1020.4
20260507093548 27 134 0.0 0.0 0.00 0.00 0.00 77 1020.5
20260507092543 27 134 0.0 0.0 0.00 0.00 0.00 80 1020.3
20260507091542 27 134 0.0 0.0 0.00 0.00 0.00 80 1020.4
20260507090540 27 134 0.0 0.0 0.00 0.00 0.00 80 1020.3
20260507085540 27 134 0.0 0.0 0.00 0.00 0.00 81 1020.3
20260507084539 27 134 0.0 0.0 0.00 0.00 0.00 81 1020.5
20260507083538 26 134 0.0 0.0 0.00 0.00 0.00 83 1020.4
20260507082537 27 134 0.0 0.0 0.00 0.00 0.00 83 1020.2
20260507081536 27 134 0.0 0.0 0.00 0.00 0.00 83 1020.5
20260507080535 28 134 0.0 0.0 0.00 0.00 0.00 81 1020.4
20260507075533 28 134 0.0 0.0 0.00 0.00 0.00 80 1020.5
20260507074532 27 134 0.0 0.0 0.00 0.00 0.00 83 1020.5
20260507073532 28 134 0.0 0.0 0.00 0.00 0.00 83 1020.5
20260507072532 28 134 0.0 0.0 0.00 0.00 0.00 84 1020.9
20260507071527 27 134 0.0 0.0 0.00 0.00 0.00 85 1020.8
20260507070526 27 134 0.0 0.0 0.00 0.00 0.00 85 1020.7
20260507065526 27 134 0.0 0.0 0.00 0.00 0.00 87 1020.5
20260507064521 26 134 0.0 0.0 0.00 0.00 0.00 88 1020.8
20260507063522 26 134 0.0 0.0 0.00 0.00 0.00 88 1020.8
20260507062521 27 134 0.0 0.0 0.00 0.00 0.00 87 1020.7
20260507061516 27 134 0.0 0.0 0.00 0.00 0.00 88 1020.7
20260507060512 27 134 0.0 0.0 0.00 0.00 0.00 88 1020.5
20260507055509 27 134 0.0 0.0 0.00 0.20 0.20 88 1020.4
20260507054507 26 134 0.0 0.0 0.00 0.20 0.20 90 1020.3
20260507053507 26 134 0.0 0.0 0.00 0.20 0.20 91 1020.2
20260507052503 26 134 0.0 0.0 0.00 0.20 0.20 92 1020.2
20260507051503 26 134 0.0 0.0 0.00 0.20 0.20 93 1020.3
20260507050501 26 134 0.0 0.0 0.00 0.20 0.20 93 1020.3
20260507045501 26 134 0.0 0.0 0.00 0.20 0.20 93 1020.2
20260507044500 26 134 0.0 0.0 0.00 0.20 0.20 94 1020.3
20260507043458 26 134 0.0 0.0 0.00 0.20 0.20 94 1020.0
20260507042458 26 134 0.0 0.0 0.00 0.20 0.20 94 1020.2
20260507041456 26 134 0.0 0.0 0.00 0.20 0.20 94 1020.2
20260507040455 26 134 0.0 0.0 0.00 0.20 0.20 94 1020.3
20260507035453 26 134 0.0 0.0 0.00 0.20 0.20 94 1020.0
20260507034453 27 134 0.0 0.0 0.00 0.20 0.20 94 1020.2
20260507033449 27 134 0.0 0.0 0.00 0.20 0.20 94 1020.2
20260507032448 27 134 0.0 0.0 0.00 0.20 0.20 94 1019.9
20260507031446 27 134 0.0 0.0 0.00 0.20 0.20 94 1019.8
20260507030446 27 134 0.0 0.0 0.00 0.20 0.20 94 1019.8
20260507025441 27 134 0.0 0.0 0.00 0.20 0.20 93 1019.7
20260507024436 27 134 0.0 0.0 0.00 0.20 0.20 94 1019.7
20260507023434 27 134 0.0 0.0 0.00 0.20 0.20 94 1019.5
20260507022435 27 134 0.0 0.0 0.00 0.20 0.20 93 1019.5
20260507021431 28 134 0.0 0.0 0.00 0.20 0.20 92 1019.2
20260507020431 28 134 0.0 0.0 0.00 0.20 0.20 93 1019.2
20260507015427 28 134 0.0 0.0 0.00 0.20 0.20 92 1019.0
20260507014426 29 134 0.0 0.0 0.00 0.20 0.20 91 1019.0
20260507013425 29 134 0.0 0.0 0.00 0.20 0.20 88 1018.9
20260507012425 29 134 0.0 0.0 0.00 0.20 0.20 87 1018.9
20260507011425 30 134 0.0 0.0 0.00 0.20 0.20 88 1018.6
20260507010420 31 134 0.0 0.0 0.00 0.20 0.20 89 1018.8
20260507005421 30 134 0.0 0.0 0.00 0.20 0.20 89 1018.6
20260507004420 30 134 0.0 0.0 0.05 0.20 0.20 89 1018.6
20260507003418 30 134 0.0 0.0 0.00 0.19 0.19 88 1018.6
20260507002416 30 134 0.0 0.0 0.00 0.19 0.19 90 1018.5
20260507001416 31 134 0.0 0.0 0.07 0.19 0.19 87 1018.4
20260507000414 32 134 0.0 0.0 0.00 0.18 0.18 87 1018.6
20260506235414 31 134 0.0 0.0 0.07 0.18 0.18 89 1018.1
20260506234413 31 134 0.0 0.0 0.00 0.17 0.17 87 1018.1
20260506233412 30 134 0.0 0.0 0.00 0.17 0.17 91 1018.3
20260506232412 30 135 0.0 0.0 0.00 0.17 0.17 92 1018.0
20260506231411 30 135 0.0 0.0 0.05 0.17 0.17 91 1017.6
20260506230411 30 135 0.0 0.0 0.00 0.16 0.16 91 1017.9
20260506225410 30 135 0.0 0.0 0.00 0.16 0.16 91 1017.8
20260506224405 30 135 0.0 0.0 0.00 0.16 0.16 92 1017.6
20260506223402 29 135 0.0 0.0 0.00 0.16 0.16 93 1017.8
20260506222401 29 136 0.0 0.0 0.00 0.16 0.16 93 1017.5
20260506221356 29 136 0.0 0.0 0.00 0.16 0.16 94 1017.5
20260506220355 29 136 0.0 0.0 0.07 0.16 0.16 94 1017.1
20260506215353 29 85 0.0 0.0 0.00 0.15 0.15 93 1017.5
20260506214352 29 132 0.0 0.0 0.00 0.15 0.15 92 1017.4
20260506213348 30 131 0.0 0.0 0.00 0.15 0.15 92 1017.8
20260506212346 31 134 0.0 0.0 0.05 0.15 0.15 91 1017.4
20260506211344 32 139 0.0 0.0 0.00 0.14 0.14 92 1016.6